Theta_e
298 298 298 298 297 298 297 298 298 298 298 298 299 299 299 299 299 299 299 300 301 301 301 302 304 303 302 302 303 303 306 307 304 303 303 303 303 303 304 305 306 307 307 308 309 308 308 309 309 309 310 310 312 313 314 314 314 317 318 316 313 312 311 312 312 312 312 311 311 310 309 307 306 304 304 304 301 300 299 298 297 297 297 296 296 296 295 295
299 298 298 298 298 298 298 298 298 298 298 298 299 299 299 299 299 300 300 300 300 301 301 302 303 305 304 302 302 302 306 308 304 303 303 302 302 303 304 305 307 307 307 309 309 308 308 308 309 310 310 311 312 312 313 313 312 313 313 311 310 310 310 310 310 310 310 309 310 310 309 308 307 306 305 305 302 300 299 299 298 297 297 296 296 296 295 295
298 298 298 298 298 298 298 298 298 298 299 299 299 299 299 299 299 300 300 300 301 301 301 302 302 304 305 304 303 302 307 311 304 302 302 301 302 303 304 305 307 307 308 309 309 308 308 309 309 310 310 310 310 310 311 311 311 310 310 309 309 309 308 309 308 308 308 307 307 307 307 306 306 306 304 302 301 300 299 299 298 297 296 296 296 296 296 295
298 298 298 298 298 298 298 298 299 299 299 299 299 299 299 299 299 300 300 300 301 301 301 302 302 303 305 306 306 303 307 311 304 301 302 301 302 303 304 305 307 307 308 309 309 309 308 309 309 309 309 309 309 308 308 308 309 308 308 308 307 307 307 308 308 308 307 306 305 305 303 302 302 303 303 303 301 299 298 298 298 297 297 296 296 296 296 295
298 298 298 299 298 299 299 299 299 299 299 299 299 300 300 300 300 300 300 300 301 301 301 301 302 304 304 305 307 306 308 309 303 301 301 301 302 303 304 305 307 307 308 309 309 309 308 309 309 309 309 309 308 308 307 307 307 306 307 307 306 306 306 306 307 307 307 306 305 304 303 301 300 300 301 301 299 298 297 297 297 297 297 297 296 297 296 295
298 298 298 298 299 299 299 299 299 299 299 300 300 300 300 300 300 300 300 301 301 301 302 302 301 303 304 304 305 306 307 305 301 301 300 301 302 303 304 305 307 307 307 309 308 309 309 308 308 308 308 307 307 307 307 306 306 305 305 305 305 305 305 305 305 306 306 305 304 303 302 301 300 299 298 298 298 297 297 297 297 297 297 297 297 297 296 296
298 298 298 298 299 299 299 299 299 299 299 300 300 300 300 300 301 301 301 301 301 301 303 303 302 302 302 305 307 303 303 302 300 301 300 301 302 303 304 305 307 307 307 308 308 308 308 308 308 308 307 307 306 306 306 306 305 305 304 304 304 304 304 304 304 304 304 304 303 303 302 300 299 298 298 297 297 297 297 297 297 296 296 296 296 296 296 296
298 298 298 299 299 299 300 299 299 300 300 299 300 300 300 301 301 301 301 301 301 301 303 303 304 304 303 309 312 304 301 301 300 300 300 301 303 303 304 305 306 307 307 307 308 308 307 307 308 308 308 307 307 306 306 305 305 304 304 304 304 304 304 304 304 304 303 303 303 302 301 300 299 298 297 297 297 297 297 297 297 296 296 296 296 295 295 295
298 298 298 299 299 300 300 300 300 300 300 299 300 300 300 301 301 301 301 301 301 301 302 303 303 305 305 309 311 305 301 300 300 301 300 301 303 303 304 304 306 307 307 307 308 308 307 307 307 307 307 307 307 307 307 306 305 304 304 304 304 304 304 304 304 304 304 303 302 301 300 299 299 299 298 297 297 297 297 297 297 296 296 296 295 295 295 295
297 298 299 299 299 300 300 300 300 300 300 300 299 300 300 301 302 301 301 301 301 302 302 303 303 303 303 305 306 303 301 300 300 301 300 301 303 303 303 303 305 306 307 307 308 308 308 307 307 307 307 306 306 306 306 306 305 304 304 304 304 304 304 304 304 304 304 304 303 302 301 301 301 301 299 297 297 297 297 297 296 296 296 296 295 295 295 295
297 297 298 299 299 300 300 300 299 299 300 299 299 300 300 301 302 301 302 301 301 302 303 303 304 304 302 302 303 302 300 300 301 301 300 301 303 303 303 303 304 305 307 307 308 309 308 307 307 307 306 305 305 305 305 305 305 304 304 304 304 304 304 304 304 304 304 303 303 303 302 302 302 302 299 297 298 297 297 297 297 296 296 296 296 296 295 295
296 297 298 298 299 299 300 299 299 300 300 300 300 301 301 301 301 301 301 301 301 302 304 304 305 307 305 302 301 301 300 301 301 300 300 302 303 304 303 303 304 304 306 307 307 309 308 307 307 307 306 306 305 305 305 305 305 305 305 304 304 304 304 304 304 304 304 303 303 303 303 303 302 301 299 298 298 298 297 297 297 296 296 296 296 296 296 295
297 297 297 298 298 298 298 298 299 301 301 300 300 301 301 301 302 302 301 302 302 302 303 303 304 306 307 304 301 300 301 302 301 301 300 301 303 303 303 304 304 304 305 306 307 308 308 306 306 306 306 306 305 305 305 306 306 306 306 305 305 305 304 304 303 303 303 302 302 303 305 305 302 300 298 298 298 297 297 297 297 297 296 296 296 296 295 295
297 297 298 298 298 298 299 299 300 301 300 300 301 301 301 301 302 301 301 302 302 302 303 304 306 306 306 304 302 301 302 301 301 301 301 301 301 303 303 303 305 304 305 306 306 307 307 307 307 306 306 305 305 305 305 306 306 306 306 306 307 307 305 304 304 303 303 302 302 303 306 305 301 299 299 298 298 297 297 297 297 297 296 296 296 296 295 295
297 297 298 298 298 298 299 300 301 301 301 301 301 301 301 301 301 301 302 302 302 303 303 305 307 308 308 305 302 302 301 301 301 301 302 301 300 302 303 304 305 304 305 306 306 307 307 307 307 306 306 305 304 305 306 306 306 305 307 308 308 308 305 303 303 304 303 303 303 303 305 304 301 300 299 298 298 298 298 298 297 297 297 296 296 296 295 295
297 297 298 298 299 299 300 300 301 302 302 301 301 302 302 302 301 302 302 301 303 303 304 305 305 308 309 305 303 303 302 301 302 302 302 302 300 301 303 304 304 304 305 305 305 307 308 309 310 308 306 305 305 306 307 307 307 306 307 309 308 307 305 304 303 303 303 303 303 303 303 304 301 300 299 298 298 298 298 298 297 297 297 297 296 296 295 295
297 297 298 298 299 300 300 300 301 302 302 301 301 301 302 303 303 303 303 302 302 304 305 304 304 307 308 304 303 303 302 301 301 302 302 301 300 301 304 305 304 304 306 307 306 308 309 310 311 308 305 304 304 307 310 310 309 308 308 307 305 305 304 305 303 303 304 303 303 304 303 303 302 299 299 298 298 298 299 298 298 298 297 297 297 296 296 295
297 297 298 298 299 300 300 301 302 302 303 302 302 302 302 303 303 303 304 303 304 307 308 305 306 309 308 305 303 302 302 301 302 302 301 302 301 302 305 306 306 307 309 309 308 311 312 311 309 306 304 303 303 305 309 310 308 307 307 306 305 304 304 304 304 303 303 303 303 304 304 303 301 299 299 298 298 298 298 299 298 298 297 298 297 297 296 296
297 297 298 298 299 300 300 301 302 302 303 302 302 302 302 305 305 304 302 304 307 308 308 307 307 309 307 305 302 301 301 301 303 302 300 302 303 304 306 306 308 310 311 311 310 312 312 308 307 306 304 302 302 303 305 305 305 306 306 306 306 305 304 304 304 303 303 303 303 303 304 304 302 299 299 299 298 298 298 299 299 298 298 298 298 297 297 297
297 297 298 299 299 300 300 301 302 302 302 303 303 306 310 313 313 307 302 303 305 305 306 306 306 307 305 305 302 301 303 304 305 302 300 303 305 306 307 308 311 310 309 310 311 311 309 305 304 305 303 301 301 302 303 303 304 305 306 306 305 305 305 304 303 304 303 303 304 304 304 304 303 302 300 299 299 298 298 299 299 298 298 298 298 298 298 298
297 297 298 299 298 299 300 300 301 301 302 302 304 309 313 315 317 311 304 304 303 303 304 304 305 305 303 303 301 300 304 308 306 301 299 303 306 308 309 309 311 309 307 309 310 309 306 304 303 302 301 300 300 302 302 303 304 305 306 306 306 306 305 304 304 304 303 303 303 303 303 304 304 304 302 300 299 298 298 298 299 298 298 299 298 299 298 298
297 297 298 299 299 299 299 300 301 301 303 302 305 307 305 305 308 306 305 306 304 302 304 303 304 304 303 303 301 301 304 306 306 302 300 303 307 309 310 309 309 307 307 308 310 308 304 302 302 300 300 300 301 302 302 303 304 305 306 306 306 304 302 303 304 304 303 303 303 303 303 303 303 304 303 301 299 299 299 299 299 299 299 299 298 299 299 299
297 297 298 299 299 299 299 300 301 300 302 302 303 303 302 300 300 300 306 309 305 304 304 304 304 304 304 303 301 303 305 303 305 303 300 302 306 307 308 308 308 307 306 306 307 307 305 301 299 298 299 299 300 302 301 301 303 306 306 305 304 301 300 301 302 302 302 301 302 302 303 303 303 303 303 302 300 299 300 299 300 300 300 299 299 300 299 299
297 297 298 299 300 300 299 300 300 301 302 300 300 300 299 299 298 299 307 311 308 306 303 303 303 302 303 302 301 305 305 302 303 302 300 302 304 307 307 307 308 307 306 305 304 304 303 299 298 299 300 300 301 302 301 300 302 305 304 303 302 300 299 299 300 301 301 301 302 302 304 305 305 305 304 303 301 300 300 300 300 301 301 300 300 300 300 299
297 298 298 299 300 301 301 300 299 301 302 299 299 298 298 300 298 299 308 311 309 308 304 303 304 301 300 301 303 305 304 303 303 301 301 300 302 306 306 306 307 307 307 307 304 303 302 299 299 300 300 301 303 302 301 301 302 303 302 301 301 300 299 300 301 302 302 304 304 303 306 308 306 306 305 303 301 300 301 300 300 300 301 301 300 300 300 300
297 297 298 299 300 302 305 303 299 301 304 299 297 298 297 299 298 300 311 314 310 309 307 307 307 304 302 302 304 305 306 306 303 301 302 301 301 304 306 306 306 306 306 304 303 303 302 301 301 301 302 303 304 302 302 302 302 303 301 300 300 300 300 301 302 303 303 304 303 303 306 308 307 306 305 304 301 300 301 301 300 300 300 300 300 300 300 300
297 297 298 299 299 302 305 303 300 303 306 301 296 297 298 298 297 301 313 316 311 309 307 307 306 304 304 304 304 306 307 306 303 302 303 302 302 303 307 306 305 306 303 303 307 304 301 302 302 303 305 305 303 302 302 301 303 305 302 300 301 300 301 303 303 304 303 303 304 305 305 307 309 306 304 304 303 301 301 300 301 300 300 300 300 300 300 300
296 297 298 298 299 300 301 300 301 300 301 299 296 297 298 298 299 306 316 313 308 306 304 305 304 301 303 305 305 305 304 304 305 304 303 303 303 305 308 306 306 305 303 306 311 304 300 301 302 303 304 303 301 301 301 301 302 304 302 301 301 300 301 303 303 303 304 305 307 307 306 307 309 306 303 303 303 301 301 300 300 300 300 301 300 300 300 299
296 297 297 298 299 300 300 299 299 298 297 297 297 298 298 299 302 310 315 309 306 305 303 304 304 302 304 306 305 305 304 304 305 303 303 304 303 304 306 305 307 307 305 307 308 303 300 299 301 302 302 301 300 300 300 300 301 302 301 301 302 302 303 303 303 304 304 307 308 306 305 305 306 305 303 303 301 300 300 299 299 299 300 300 301 301 300 299
296 297 297 297 298 300 303 301 297 298 299 298 298 298 299 304 311 315 312 306 306 307 305 305 304 303 305 307 305 304 304 304 303 303 305 306 303 303 304 303 306 307 304 304 304 302 299 299 301 300 299 299 299 300 301 300 301 301 301 302 304 305 304 304 305 304 306 308 304 301 302 302 303 304 301 300 299 298 298 298 298 299 299 299 301 302 300 299
296 296 296 297 297 299 303 303 297 297 299 299 298 300 305 313 316 314 310 306 307 308 305 305 305 304 305 305 303 302 304 304 303 304 305 304 302 301 302 302 304 306 306 304 303 301 300 301 301 299 298 299 300 302 302 302 301 301 302 304 306 307 305 305 305 304 308 309 301 298 301 301 303 302 299 298 298 297 297 297 298 299 299 300 301 301 300 299
295 296 296 297 297 297 299 300 297 296 298 299 300 303 312 317 313 311 308 307 309 308 305 305 305 304 304 304 301 301 303 303 303 304 305 304 301 299 300 300 301 306 309 307 305 304 303 301 300 299 299 300 301 302 303 303 302 302 303 303 306 309 307 306 307 306 309 307 299 298 301 302 302 300 297 297 297 297 297 298 298 298 298 299 300 300 299 299
295 296 296 297 297 297 297 297 297 297 298 300 303 309 315 314 312 310 307 306 306 306 304 304 304 304 304 304 301 299 302 302 303 305 305 305 303 301 300 299 298 304 307 306 305 306 305 302 300 300 300 299 300 300 301 301 301 301 303 303 305 308 306 307 308 308 310 306 300 299 300 304 304 299 297 297 296 297 297 298 298 298 297 298 298 299 299 298
295 296 297 297 297 297 297 297 297 297 298 302 309 315 315 313 311 309 306 303 300 302 304 303 303 304 303 301 300 300 303 303 303 304 304 304 303 302 300 298 298 300 302 304 304 303 306 306 303 300 299 299 299 298 298 299 300 302 302 301 304 305 303 305 307 308 309 306 302 301 301 305 305 300 298 297 297 297 297 297 298 297 297 298 298 298 297 297
296 296 297 298 297 297 297 298 298 297 300 307 315 318 316 312 310 310 307 303 299 301 304 302 304 305 303 301 300 300 303 305 303 302 302 303 302 301 298 297 297 298 300 304 303 301 305 307 303 299 298 298 298 298 297 299 301 302 302 303 304 302 300 303 305 304 303 303 303 303 303 303 301 299 298 298 297 297 296 297 297 297 297 297 297 297 297 297
296 298 301 299 297 297 297 298 297 297 302 311 318 319 314 308 308 309 306 303 303 303 303 304 306 306 305 303 302 301 303 303 303 303 303 301 300 300 299 297 297 297 298 302 301 300 303 305 302 299 298 296 297 298 298 299 301 301 303 304 302 299 298 301 304 301 301 303 304 304 303 300 298 298 298 297 297 296 296 296 296 297 297 296 297 297 297 297
297 299 303 301 297 297 298 298 297 299 305 316 321 316 307 301 301 302 303 302 302 302 303 305 306 305 304 304 303 302 302 303 303 305 304 302 301 300 299 298 297 297 297 299 301 299 300 303 301 300 300 297 295 297 298 299 299 300 302 301 299 299 299 300 302 302 303 304 304 303 302 301 300 300 299 297 297 296 296 296 296 296 296 296 297 297 296 296
298 300 304 301 297 297 298 298 298 302 309 318 319 309 301 299 298 299 300 300 300 300 302 305 306 304 304 305 303 301 302 306 305 304 304 303 303 301 299 299 298 297 296 297 300 299 298 303 302 299 301 299 296 299 301 300 299 300 300 300 300 301 301 301 302 303 303 302 303 303 302 301 301 300 298 297 296 296 295 295 295 295 295 296 296 296 296 296
299 304 308 302 297 297 299 301 303 307 314 318 316 308 301 300 299 297 298 299 300 300 301 303 303 303 303 303 302 300 302 305 303 303 304 304 304 302 299 298 297 297 296 296 299 298 298 302 303 301 300 300 298 299 300 299 299 299 300 299 299 300 301 301 300 301 302 302 303 303 302 301 299 298 297 296 295 295 295 295 295 295 295 295 295 295 296 296
301 307 310 301 297 299 299 303 308 313 317 314 310 306 300 299 300 297 297 298 299 300 302 302 301 302 302 301 300 299 300 301 301 302 303 301 302 302 299 297 296 297 297 296 297 298 299 300 303 303 301 301 301 299 298 298 298 299 300 300 298 298 300 300 300 299 300 301 301 301 301 300 298 297 296 296 295 295 295 295 295 296 295 295 295 295 296 296
301 309 310 301 297 299 301 306 308 308 308 305 303 302 299 300 300 298 297 297 298 299 299 300 300 301 302 302 300 298 299 301 300 301 301 300 300 301 298 296 295 295 296 297 297 298 298 299 301 301 301 303 301 296 296 297 298 299 299 298 297 298 300 300 300 299 298 299 300 299 299 300 298 297 296 296 296 296 296 296 296 295 295 295 295 295 295 295
304 311 308 300 298 300 307 312 306 302 304 303 301 300 299 300 300 298 298 297 297 297 297 299 300 300 299 300 301 299 300 301 301 301 300 299 300 300 297 295 295 295 295 297 298 297 296 297 299 301 301 300 297 294 294 296 297 298 297 297 297 298 299 299 299 300 297 297 298 298 299 300 297 297 297 296 296 296 296 296 295 294 294 294 295 295 295 295
308 308 304 301 298 300 310 315 307 301 299 297 297 297 297 299 299 299 298 297 297 298 298 299 300 300 299 298 299 299 300 301 300 300 299 298 299 298 295 294 295 296 296 297 298 296 296 297 299 302 300 296 294 294 294 294 296 298 297 297 297 297 297 297 297 297 296 297 298 298 300 301 298 297 297 296 296 296 296 295 294 294 294 294 295 294 295 295
304 304 304 302 298 302 313 316 310 303 297 296 298 298 297 297 298 299 298 297 297 298 298 298 298 299 298 296 297 298 299 301 301 299 298 299 298 296 295 295 295 296 297 297 297 296 298 299 300 302 303 300 298 297 297 297 297 297 297 297 297 296 295 296 295 295 296 297 297 298 300 301 299 299 298 297 297 296 295 295 294 294 294 294 294 294 294 294
303 305 306 303 299 303 310 309 307 304 299 299 301 299 298 297 296 297 298 297 297 297 299 299 298 297 296 295 296 296 296 299 301 299 298 298 298 296 295 294 294 296 296 295 295 296 297 299 299 300 303 304 303 302 300 299 298 296 296 297 296 296 295 295 295 296 297 298 297 298 300 298 298 299 297 297 296 295 294 295 294 294 294 294 294 294 294 294
306 308 309 307 303 303 304 302 303 304 301 303 304 300 299 299 297 296 297 298 298 297 298 298 297 297 297 296 298 298 296 296 297 298 297 297 298 295 294 294 294 295 295 294 295 295 296 297 297 299 301 302 302 301 299 298 297 297 297 296 296 296 295 295 296 296 297 297 297 298 298 296 297 297 296 296 295 294 294 294 294 294 294 294 294 294 295 295
306 308 306 306 307 307 305 303 302 303 303 305 305 302 299 298 297 296 296 297 298 297 297 297 296 298 299 298 298 299 297 295 296 298 297 297 297 294 292 293 294 295 295 294 295 295 296 298 298 298 299 299 298 298 296 296 296 296 296 296 296 296 296 296 296 296 296 297 297 297 296 296 296 295 295 295 294 294 294 294 294 294 294 294 294 295 295 294
305 306 299 299 306 309 308 305 302 302 303 302 301 301 300 298 298 298 296 296 297 297 298 299 299 299 300 299 300 300 299 298 298 299 298 296 295 294 294 293 293 295 295 293 293 294 296 298 297 296 297 297 296 296 295 296 296 295 296 296 295 295 296 296 296 295 295 296 296 296 296 296 295 294 295 294 294 294 294 294 294 294 294 295 294 294 294 294
302 303 296 295 302 303 301 301 301 303 304 301 299 300 300 299 300 299 297 296 297 297 298 301 302 301 300 299 300 301 301 301 301 300 298 297 296 296 297 296 294 294 294 294 292 292 295 297 296 295 296 295 295 295 295 295 296 295 296 296 295 295 295 295 295 295 295 295 295 295 295 294 294 294 294 294 295 294 294 294 294 294 294 295 294 294 294 293
301 302 299 299 301 297 295 297 300 303 303 301 301 302 300 300 302 299 297 298 300 298 297 300 302 301 299 298 299 300 300 300 301 300 299 300 298 297 297 298 297 293 293 294 293 292 294 297 296 294 295 296 296 296 296 296 296 295 294 294 294 294 295 295 295 294 295 295 295 294 294 294 294 295 295 295 295 294 294 294 294 294 294 294 294 294 293 293
297 296 297 302 304 299 297 298 298 302 303 301 304 303 300 301 302 300 299 299 300 300 298 299 302 301 298 297 298 299 299 298 299 299 299 299 298 297 296 297 298 296 294 294 293 292 294 296 295 295 296 297 297 297 297 296 295 294 295 296 294 294 296 297 296 295 295 295 295 295 295 295 295 295 295 294 295 294 294 294 294 294 294 294 294 294 293 293
296 295 295 302 306 301 299 299 298 302 304 302 303 302 301 302 302 301 302 299 297 299 298 299 302 300 299 299 299 299 298 297 297 297 297 296 296 295 296 296 296 297 295 293 293 293 293 295 295 296 297 297 297 297 296 295 298 300 301 302 299 296 296 297 297 296 296 295 295 296 295 295 295 295 294 294 294 294 294 294 294 294 294 294 294 294 294 294
Wind_Speed
16 15 15 14 13 13 12 13 13 14 17 18 18 18 18 19 21 24 27 27 18 16 21 23 23 16 7 2 3 7 10 18 31 37 32 30 38 37 34 34 32 29 28 26 22 21 13 8 6 0 1 0 1 1 4 6 4 2 1 5 6 5 6 6 6 7 7 8 7 8 10 11 11 9 9 11 15 14 14 13 11 13 12 11 12 12 11 11
16 16 15 15 14 14 13 13 13 15 17 17 17 17 18 19 21 24 26 27 19 15 20 23 26 21 13 6 2 5 5 13 27 29 30 39 41 37 34 34 33 29 28 24 19 17 12 10 7 5 2 2 2 3 3 5 7 5 4 6 6 5 7 7 8 9 8 9 9 8 9 9 9 8 7 9 12 12 12 11 10 12 11 11 12 13 14 15
15 15 14 14 14 14 14 13 14 15 17 17 16 16 17 18 20 23 24 27 22 15 16 20 25 26 22 13 5 4 3 7 18 22 34 43 40 38 36 34 33 30 26 20 13 11 11 8 7 8 6 6 5 7 6 5 6 7 5 7 6 6 9 9 10 10 9 10 10 10 9 10 8 6 7 11 12 11 10 8 8 10 9 9 10 10 11 13
15 14 14 14 13 14 13 13 15 15 17 17 16 15 16 18 19 21 22 25 26 19 14 12 18 27 30 23 9 2 2 3 9 21 37 42 40 40 36 33 32 29 26 17 8 6 7 7 8 7 7 7 7 9 9 6 4 5 6 7 6 6 9 10 10 10 9 9 9 9 9 10 9 7 6 10 11 9 8 7 8 10 9 9 9 10 10 10
14 14 13 13 13 13 13 14 15 16 18 18 17 15 15 18 18 20 21 22 26 25 18 10 9 19 28 30 17 2 2 1 9 27 37 38 39 39 36 33 30 27 26 22 15 10 10 11 10 7 6 6 7 8 8 8 6 6 8 8 7 6 8 8 8 8 8 8 9 8 8 8 8 10 9 9 9 6 5 7 7 8 9 10 9 11 11 12
14 13 12 12 12 12 13 14 15 17 18 19 18 16 15 16 17 18 19 20 23 25 23 14 7 8 15 24 26 16 5 3 13 29 35 36 36 38 36 31 28 27 27 28 23 16 12 10 9 8 7 7 10 9 8 8 7 8 7 8 9 8 9 8 7 8 7 8 9 8 8 8 9 10 9 12 11 6 7 8 8 8 9 9 8 9 10 10
14 13 12 11 12 11 13 14 16 18 19 21 20 16 14 14 16 17 18 19 19 21 23 17 9 6 8 10 18 22 13 4 18 29 31 33 33 35 34 29 29 28 27 30 25 16 12 11 10 7 8 8 10 12 13 13 11 11 8 8 10 10 10 9 8 9 9 10 9 8 8 8 10 9 7 11 9 7 8 10 12 11 11 10 8 8 8 8
14 13 11 10 11 10 12 13 15 18 20 22 21 17 12 12 16 16 16 17 18 19 21 22 15 7 8 5 3 10 11 8 23 28 28 29 30 32 33 30 31 29 25 26 23 17 13 13 11 7 8 8 9 10 13 15 12 10 10 8 9 9 10 8 8 9 9 9 8 9 10 9 10 9 8 9 7 7 8 10 11 11 10 9 9 9 8 8
15 13 11 10 10 10 11 13 15 18 20 21 21 17 10 11 15 15 15 15 16 15 16 25 24 13 12 8 2 4 8 14 22 26 26 26 27 29 31 32 32 30 26 25 26 21 12 10 12 9 9 9 9 7 8 12 7 7 11 9 9 9 8 7 7 8 7 6 7 10 10 9 10 8 8 7 6 7 7 8 8 8 8 6 6 8 9 9
15 14 12 11 10 10 10 13 16 18 21 20 19 16 9 9 13 14 14 13 15 14 10 15 23 25 23 13 7 8 9 17 20 24 24 23 24 26 30 31 30 29 26 25 27 22 12 7 8 8 8 8 10 9 9 11 7 8 11 10 10 9 7 6 7 6 5 4 6 8 7 7 7 3 3 4 6 7 7 7 6 6 6 5 6 7 9 9
16 14 13 12 11 10 11 14 17 20 21 18 17 14 7 7 11 13 13 12 13 16 13 10 11 22 30 22 11 6 12 15 19 23 21 20 21 23 26 26 27 27 23 21 24 24 17 11 6 3 6 7 10 13 12 10 10 10 11 10 10 8 6 5 5 4 3 3 4 5 6 4 3 2 5 7 6 6 7 7 7 6 6 5 5 6 8 8
15 14 13 12 11 11 13 16 18 19 18 16 15 11 5 6 10 12 13 12 11 14 16 16 12 9 16 20 10 5 13 13 18 22 17 17 18 17 19 21 23 24 21 17 19 24 20 17 12 5 5 5 7 9 7 7 9 9 8 9 8 7 7 5 4 3 2 3 3 2 3 3 3 4 8 8 5 6 7 6 6 6 5 5 5 4 6 7
14 14 13 13 13 13 14 15 16 17 15 16 15 8 5 5 8 10 14 14 10 9 10 15 17 11 8 9 4 10 18 14 18 19 15 16 15 12 15 17 19 21 20 16 17 21 18 18 18 11 7 4 4 4 4 4 4 6 5 6 5 5 5 4 3 2 1 2 1 1 1 2 4 6 8 7 6 6 6 5 5 5 4 4 4 4 5 6
13 13 13 13 13 13 14 13 14 15 13 17 18 10 5 5 6 8 11 14 13 11 9 9 12 14 11 4 1 13 20 16 21 23 19 19 16 12 14 16 17 17 17 17 17 19 18 15 14 10 7 7 4 3 5 2 1 2 2 2 1 2 2 2 2 3 2 2 2 2 2 1 5 6 7 6 6 7 6 6 5 4 4 3 4 4 4 5
14 13 13 14 14 14 13 12 14 12 9 15 22 18 10 4 3 6 9 10 13 14 10 8 9 8 6 3 2 11 19 21 25 25 21 20 17 13 13 15 15 14 14 13 14 15 15 12 8 5 4 4 1 2 4 3 2 1 1 1 2 2 3 2 2 3 3 1 2 2 2 1 5 7 7 6 6 7 6 6 5 5 5 4 4 4 3 5
15 14 14 15 16 14 13 12 13 10 5 8 17 23 22 15 7 6 8 7 9 14 10 9 11 6 4 2 5 9 15 21 24 25 23 18 14 11 15 14 10 11 11 9 12 12 9 7 2 2 4 3 1 2 1 2 1 1 1 2 4 3 2 2 2 4 3 2 2 3 2 1 5 7 8 7 7 6 5 6 6 5 6 5 4 5 4 5
17 16 15 16 16 15 14 13 13 9 3 2 7 13 20 25 19 6 6 4 3 9 11 13 13 6 6 6 6 7 13 20 22 26 28 19 12 12 15 10 7 13 12 7 10 11 6 3 1 1 5 5 5 5 1 3 4 4 4 3 1 2 1 1 2 3 4 3 3 4 4 2 6 9 8 9 8 7 5 6 7 5 5 5 5 5 5 5
17 17 15 15 15 14 14 12 12 10 5 3 4 6 7 15 25 24 15 5 2 6 8 16 15 5 4 9 7 11 19 20 19 24 29 19 10 13 13 7 7 13 10 4 6 8 4 3 4 4 6 7 8 7 3 3 4 5 5 3 1 2 1 1 2 3 5 4 5 4 6 4 7 9 8 9 9 8 7 6 6 6 6 5 5 5 5 6
17 18 16 14 15 14 13 12 12 12 8 4 5 6 6 5 10 25 31 21 10 5 3 10 11 2 2 7 9 18 19 14 13 22 30 22 13 14 12 7 7 8 5 2 5 7 4 4 6 5 6 7 8 7 5 3 5 5 6 4 4 3 1 2 2 2 4 4 5 5 7 6 5 8 8 8 8 7 7 6 6 6 6 5 5 5 5 5
17 18 17 14 14 14 13 12 11 11 12 9 6 4 3 2 0 7 19 20 11 6 4 3 5 2 3 4 12 20 14 6 8 21 32 24 13 11 10 6 4 3 5 3 4 5 4 6 7 5 5 7 8 7 6 5 6 6 6 4 3 2 2 2 2 3 4 2 5 5 7 7 4 7 9 9 8 7 7 7 6 6 5 5 5 5 5 5
17 17 17 15 13 14 14 13 12 11 12 10 6 5 2 1 2 1 3 8 7 6 6 2 2 3 2 3 11 16 7 3 8 21 31 23 9 5 6 6 3 4 6 2 2 4 6 7 6 5 6 7 8 6 7 7 7 6 5 5 4 2 4 4 2 3 3 1 5 7 8 8 7 6 7 10 9 9 9 8 6 7 5 5 5 5 6 4
17 17 17 16 12 13 15 15 14 11 9 9 11 11 5 3 4 4 1 3 4 3 3 2 2 3 2 2 10 11 2 3 9 18 30 23 10 5 4 6 6 4 7 3 1 3 6 6 5 6 6 7 7 5 6 7 6 6 4 4 4 4 6 5 3 2 1 0 4 7 7 9 9 8 6 10 11 8 8 8 6 6 5 5 5 5 5 4
17 16 17 17 13 10 12 14 14 12 12 15 17 12 6 6 5 3 3 2 2 2 1 3 3 4 4 2 10 11 3 5 6 11 25 20 7 4 3 4 6 5 8 8 5 4 4 3 6 5 4 6 7 5 7 7 4 3 4 4 4 5 5 3 2 5 7 6 7 7 7 10 9 8 8 8 11 6 6 7 5 5 5 5 6 5 6 5
17 17 17 17 14 9 8 12 15 16 17 18 20 13 6 6 5 4 4 1 2 1 1 2 2 3 3 3 9 8 2 5 4 9 20 15 5 4 3 3 5 5 6 8 9 8 4 1 3 4 3 4 6 5 8 6 4 3 5 5 3 6 6 5 7 9 10 8 7 5 5 6 4 5 7 5 9 7 6 6 5 5 4 5 5 5 6 5
18 18 16 17 16 10 6 10 14 14 13 13 14 11 7 7 6 5 2 1 2 1 0 1 1 3 4 4 7 4 0 2 3 8 14 12 6 5 2 1 2 5 5 6 8 6 4 1 2 4 3 3 3 4 6 4 4 3 3 3 3 5 7 8 8 8 6 4 1 2 3 3 3 2 4 4 8 6 5 5 5 5 5 4 4 4 5 4
18 18 17 17 16 11 4 6 11 9 7 9 8 6 7 7 7 5 1 1 2 1 2 1 0 5 7 7 7 1 1 2 3 8 11 11 7 2 2 3 1 4 4 4 3 2 4 5 4 4 4 4 1 3 5 4 4 3 1 1 4 5 7 7 7 5 2 4 2 2 0 3 4 6 4 4 8 6 5 5 6 5 5 5 5 4 4 4
17 17 17 17 17 13 5 3 8 8 4 4 6 5 5 6 6 5 1 1 1 2 3 3 2 5 6 10 11 1 2 5 4 7 11 12 8 2 1 4 2 3 2 2 2 1 4 7 8 7 5 4 3 3 4 5 3 3 1 2 5 6 6 6 5 4 3 5 4 2 2 3 3 5 7 6 7 5 4 4 5 5 6 6 5 5 5 5
15 16 16 16 16 15 10 5 6 6 3 2 5 4 4 6 5 3 1 2 2 2 1 2 2 4 5 9 10 5 2 6 3 6 12 12 8 1 2 6 4 3 3 1 2 2 4 6 7 8 6 4 4 4 5 5 2 2 2 5 6 5 5 5 4 4 4 4 3 2 2 2 2 3 5 7 8 6 5 5 4 3 3 5 6 6 5 5
14 15 16 14 12 13 13 11 9 6 3 2 2 2 3 6 3 2 2 1 1 1 1 3 2 4 6 5 6 7 2 3 3 6 11 8 8 4 2 3 4 3 5 4 3 2 2 3 3 4 4 3 4 6 5 3 3 5 8 9 7 5 4 4 3 4 4 2 1 3 3 1 1 2 5 6 6 6 6 7 8 9 8 4 3 6 5 5
14 15 16 14 12 11 10 12 12 7 4 3 2 3 3 3 2 2 2 1 1 1 1 3 2 4 7 3 4 7 6 4 3 5 5 3 7 7 3 1 2 1 4 6 5 3 2 0 2 2 2 2 4 6 4 3 5 6 8 8 6 3 3 3 4 2 2 1 1 3 4 2 1 2 4 5 5 5 5 6 7 9 10 9 3 4 6 5
14 15 16 15 15 13 7 6 11 8 5 4 3 3 2 1 2 2 1 0 1 1 1 3 2 3 6 5 3 7 6 4 5 6 5 4 7 9 5 2 3 2 2 3 4 2 2 1 1 1 0 2 4 5 3 4 4 4 4 6 5 1 0 1 2 1 1 0 1 3 4 2 1 1 4 5 5 6 5 5 7 8 8 8 6 6 6 5
12 13 15 16 15 14 9 6 10 8 5 5 3 1 1 2 2 1 0 0 1 2 1 1 2 3 3 3 3 6 4 4 5 5 4 4 6 8 8 5 4 3 2 3 3 0 1 1 1 1 1 1 3 4 2 1 2 4 4 5 5 3 2 2 1 1 1 1 3 2 4 2 2 2 4 4 5 6 5 5 6 7 8 8 8 8 6 6
10 11 12 14 14 15 13 11 11 8 5 4 2 1 2 2 1 0 1 1 1 1 0 1 3 4 3 2 3 4 1 1 4 5 3 3 5 5 8 8 7 3 0 4 5 2 2 2 2 1 1 3 5 4 2 3 4 5 5 4 4 3 3 3 3 3 1 1 2 4 3 2 2 2 3 4 4 5 5 5 6 6 8 7 7 6 6 5
9 10 10 12 15 16 15 13 11 8 5 2 1 2 5 2 0 0 1 1 1 1 1 1 3 3 2 3 1 2 1 1 2 5 5 4 4 4 5 8 10 5 2 2 3 2 2 2 3 2 2 3 4 3 0 3 4 4 3 2 3 3 2 1 2 3 3 3 4 1 2 1 1 1 1 3 4 4 5 5 5 6 5 5 5 5 5 5
8 8 9 11 16 17 15 14 11 8 4 1 1 4 4 1 1 1 1 1 1 2 1 0 2 2 2 2 1 1 1 1 1 4 5 4 4 3 3 5 8 6 2 2 2 2 3 2 2 1 2 2 3 1 1 1 2 3 2 2 2 1 1 2 3 2 2 2 4 2 1 1 2 2 3 3 5 5 5 5 5 5 4 3 4 4 4 5
8 8 7 9 15 17 15 13 10 7 3 1 4 3 1 1 1 1 1 1 1 2 2 1 2 2 1 1 1 2 0 0 2 2 3 3 3 3 2 1 5 6 3 2 2 2 3 3 2 1 1 2 3 2 2 2 1 2 2 2 0 1 3 1 3 2 1 1 2 2 1 2 2 2 2 4 6 5 5 5 5 4 4 3 3 4 5 5
8 6 4 7 15 16 14 12 9 5 2 3 5 2 1 2 0 1 2 1 1 0 1 1 1 2 1 1 2 4 3 1 3 2 1 1 2 2 2 1 2 4 3 1 1 1 2 3 2 1 1 1 1 2 3 1 1 1 1 1 0 2 3 1 1 2 2 2 3 3 3 2 1 1 1 4 5 4 5 6 5 5 6 5 5 5 5 5
8 5 2 6 15 16 13 11 7 3 2 4 5 2 1 1 1 1 2 2 1 1 0 1 1 1 1 1 1 4 4 2 4 3 2 1 1 1 2 1 1 2 2 1 1 1 1 2 2 1 1 1 1 2 2 2 2 3 0 1 1 2 1 1 1 2 3 3 4 3 4 4 2 1 2 4 4 5 7 6 6 6 6 5 5 5 5 6
7 4 1 6 15 14 12 10 6 2 3 4 3 1 0 2 1 1 2 2 1 0 1 1 1 2 2 2 1 2 3 3 3 2 1 1 1 1 1 1 0 2 2 2 1 1 1 1 2 3 1 1 1 2 2 2 2 2 1 2 2 2 1 1 1 1 2 3 4 4 4 2 1 0 2 4 5 7 7 7 6 6 6 5 5 5 5 5
5 2 1 8 15 13 9 8 6 4 4 3 2 1 1 1 2 1 1 1 1 0 2 1 1 1 2 1 1 1 2 2 3 2 1 1 1 2 2 1 1 3 4 2 1 2 1 2 1 3 1 2 1 2 2 1 2 2 2 3 2 1 0 1 1 1 1 2 2 4 5 2 2 0 3 5 4 5 6 6 6 5 6 6 6 6 6 6
3 1 0 9 16 10 6 7 6 4 3 2 3 2 1 0 1 2 1 1 1 1 1 2 2 2 1 1 1 1 1 1 2 2 2 1 1 1 1 1 2 3 3 2 0 1 1 0 2 4 3 2 1 1 3 1 1 1 1 3 2 1 2 2 2 1 1 0 1 3 6 5 2 2 4 3 2 3 5 5 5 6 7 7 6 6 6 6
2 1 2 11 16 8 4 6 3 3 3 1 1 2 1 1 1 1 1 0 1 1 1 1 2 3 2 0 0 1 2 2 2 2 1 2 2 1 1 2 3 3 2 1 2 2 1 1 2 4 3 3 2 1 4 3 1 1 1 2 1 0 3 2 2 2 2 2 2 2 4 5 3 3 4 2 2 3 5 5 7 7 7 7 7 7 7 7
2 1 3 12 15 5 4 5 2 3 4 0 1 1 2 2 1 1 0 1 1 2 1 1 1 2 2 1 1 1 2 1 1 1 1 1 2 2 0 2 3 3 2 1 1 1 1 1 1 4 2 3 1 1 3 3 2 2 1 0 1 2 4 3 3 0 1 2 1 1 4 5 3 1 2 3 4 4 5 7 9 8 6 7 8 8 7 8
1 2 3 11 13 4 4 3 2 3 2 1 1 2 1 2 2 1 1 2 2 2 1 1 0 1 2 1 2 1 1 1 1 0 0 1 1 1 1 2 4 4 2 1 1 2 1 1 1 3 3 2 2 2 3 3 2 2 2 1 2 4 4 2 0 2 1 4 4 3 4 4 2 2 3 4 5 7 9 9 9 8 7 7 8 8 8 8
2 1 2 7 12 8 3 0 2 4 3 3 3 2 1 2 2 1 1 2 2 2 1 1 1 2 2 2 3 2 0 1 1 1 0 0 0 1 2 3 4 3 3 3 3 2 1 1 1 2 3 3 3 2 2 2 3 3 1 1 3 4 6 3 0 1 2 4 5 4 5 7 5 4 6 8 9 10 11 10 9 8 8 8 8 8 8 7
1 1 1 3 8 8 3 0 3 5 4 3 2 1 1 2 1 0 1 1 0 1 1 1 0 1 2 1 1 2 1 1 1 1 1 1 1 2 1 1 2 3 3 4 5 2 0 1 1 3 4 4 4 3 1 3 5 5 3 3 4 4 6 5 2 3 3 2 4 8 10 13 12 8 8 9 10 11 12 11 9 8 8 9 8 8 7 7
1 1 1 1 3 4 4 3 4 4 3 2 1 2 3 3 2 1 1 1 1 1 1 1 0 1 1 1 1 1 1 1 2 0 1 1 1 0 1 1 2 2 3 2 5 2 1 2 2 4 6 7 7 7 5 5 8 8 6 7 7 5 4 5 4 5 1 3 6 7 6 11 14 10 10 12 12 11 11 10 10 9 8 9 8 7 8 8
2 1 0 1 1 1 2 2 2 4 4 2 1 2 3 3 3 1 0 1 0 1 1 1 1 3 2 1 1 1 1 0 0 1 1 1 0 0 1 1 2 3 4 1 3 2 1 2 1 1 5 7 8 9 9 8 9 8 7 9 9 7 6 7 8 8 4 4 9 8 7 12 15 12 12 14 12 10 11 10 9 9 9 9 8 9 9 8
2 2 0 0 1 2 0 1 1 4 5 3 1 1 2 4 3 1 1 1 0 1 2 1 2 5 4 0 1 1 2 0 2 2 1 1 1 2 1 1 1 3 4 2 1 1 2 1 1 2 6 8 9 10 9 9 9 7 8 10 10 8 7 8 10 9 8 11 15 14 14 17 15 13 13 13 9 9 9 9 9 10 9 9 10 10 9 9
1 1 1 1 3 2 1 1 1 2 2 1 1 1 2 4 3 2 2 2 1 2 3 1 2 4 3 2 1 0 1 2 2 1 1 2 1 2 2 0 2 3 1 1 0 1 1 1 1 2 4 7 7 5 4 7 8 8 11 11 9 8 8 9 10 8 8 12 14 13 15 15 11 9 10 9 8 8 9 9 10 9 9 10 11 12 11 10
2 1 1 2 3 1 0 1 1 1 1 0 1 2 2 3 5 4 2 1 1 2 3 2 3 5 3 1 2 0 3 4 3 3 2 2 1 1 1 0 3 4 2 1 1 1 1 0 1 2 2 5 3 2 5 9 8 9 12 11 8 7 5 6 7 6 7 9 9 8 10 9 6 5 7 8 8 9 10 10 10 9 9 11 12 12 12 10
3 2 1 2 2 0 1 1 0 1 1 0 0 2 1 1 5 5 2 1 2 2 1 1 2 3 2 2 3 1 3 4 3 3 3 2 1 1 1 1 1 3 3 2 2 1 1 0 1 2 3 4 3 4 7 8 6 6 7 6 6 6 5 6 6 7 9 8 5 6 7 7 6 7 9 9 9 9 10 9 9 10 11 12 12 11 10 9
Wind_Direction
41 42 43 43 42 39 36 31 29 25 21 17 15 16 16 16 15 12 13 15 24 29 23 22 24 21 9 357 10 8 22 30 20 20 24 4 353 355 358 0 1 359 351 347 345 348 0 10 15 60 187 50 6 3 333 356 355 311 42 54 67 53 44 42 55 89 107 114 102 98 102 103 111 108 112 91 71 80 78 73 74 71 76 74 67 57 50 48
41 42 43 42 41 38 36 31 24 17 13 12 11 12 13 14 13 14 15 18 27 34 30 29 30 29 16 357 346 354 8 28 22 21 11 358 358 1 1 4 5 0 349 337 330 343 341 327 7 46 61 73 25 11 7 15 26 40 73 68 71 61 53 55 67 86 95 98 94 89 95 94 106 117 110 97 86 84 83 84 86 82 84 82 73 64 61 63
41 42 43 43 43 40 38 31 22 15 10 10 9 8 9 10 12 15 17 19 24 30 32 31 32 34 27 10 340 351 343 9 22 15 359 356 359 2 2 5 7 1 348 331 320 333 317 314 44 63 50 55 41 40 41 22 33 47 70 77 73 75 69 64 71 81 86 92 91 79 73 70 71 90 100 95 88 76 77 91 96 91 91 89 86 86 79 70
38 39 42 42 43 41 38 30 23 19 15 12 7 5 6 8 12 16 19 21 22 23 23 26 32 36 35 23 359 325 309 347 21 359 350 353 359 2 2 4 7 2 354 351 353 346 339 18 63 80 70 65 54 54 48 27 40 53 60 84 82 76 73 67 75 83 87 89 89 85 71 62 48 47 97 110 90 70 71 84 96 106 111 111 107 100 92 78
34 34 36 38 40 40 36 32 28 25 20 14 8 4 4 10 14 16 19 22 23 21 16 9 21 36 40 34 29 17 273 28 359 345 346 351 359 3 1 7 13 9 10 16 23 36 46 51 51 55 62 66 63 59 54 50 75 70 53 79 83 76 79 68 74 82 89 92 85 83 73 68 56 41 54 84 87 85 86 88 96 105 112 117 115 107 98 86
32 30 31 33 34 37 36 34 31 26 22 16 10 5 5 12 17 19 19 21 23 21 19 12 358 24 34 35 43 52 72 87 339 336 344 352 1 5 4 13 19 18 27 26 22 34 49 60 60 58 62 64 67 66 59 52 78 92 63 69 75 73 84 73 67 70 75 86 81 83 86 86 83 66 57 71 83 97 101 103 104 102 103 106 106 104 101 95
31 29 29 29 29 33 33 32 29 26 22 18 13 7 8 14 16 19 19 20 21 23 27 22 9 4 358 16 45 52 72 49 335 336 344 355 5 8 10 19 21 21 31 27 18 26 35 50 62 69 77 72 74 78 76 65 67 94 91 78 81 77 82 81 70 69 70 77 79 87 94 89 88 87 76 80 92 103 104 109 113 112 111 106 99 94 91 92
29 28 29 26 27 29 28 28 24 22 19 16 14 9 10 15 14 14 18 19 16 25 37 37 32 18 17 22 28 48 60 349 331 339 346 358 7 10 17 23 21 20 28 28 21 22 26 37 43 55 75 81 92 95 92 80 63 83 102 97 93 89 89 96 90 88 86 83 85 84 85 85 92 97 90 93 105 112 116 117 119 122 121 114 110 113 108 101
26 27 26 22 21 21 22 22 17 14 11 8 9 10 11 13 13 12 14 14 12 22 42 46 44 45 52 48 27 64 27 336 332 342 349 358 3 11 22 22 21 21 21 26 23 20 25 29 27 40 68 77 83 91 90 85 74 89 107 110 102 99 95 100 98 99 100 104 106 96 96 108 114 105 87 102 119 121 129 126 129 130 124 122 119 123 122 118
22 22 21 17 13 12 13 11 5 1 359 359 2 6 12 11 15 17 16 15 17 26 37 43 42 46 56 51 51 67 350 335 342 347 351 354 359 12 20 20 22 22 18 23 20 12 14 25 24 38 58 59 58 57 61 80 112 111 105 105 96 98 97 92 91 94 96 94 107 112 121 141 160 161 97 128 140 136 141 134 140 137 127 132 125 122 120 121
20 19 17 11 7 4 358 356 353 352 356 359 358 4 16 16 22 25 24 25 31 44 48 41 33 44 54 54 63 56 345 344 349 353 357 355 2 11 14 17 23 22 17 19 17 5 3 24 38 53 60 69 70 65 68 87 112 112 106 102 96 100 94 90 91 89 98 72 73 113 126 143 179 179 135 149 156 150 147 141 147 140 136 137 128 129 125 123
18 17 13 6 360 350 344 345 347 354 5 4 357 5 26 29 36 36 32 35 41 53 55 53 49 52 56 54 65 18 0 360 351 1 8 2 10 11 12 21 22 24 20 11 11 5 10 37 50 67 72 88 84 73 90 110 117 123 116 104 108 107 80 69 78 57 93 72 12 74 134 171 159 131 134 147 163 159 150 148 151 140 138 137 131 133 124 124
17 15 10 2 354 346 344 346 352 5 17 15 9 23 56 50 42 37 35 39 40 39 44 54 56 63 65 58 59 16 16 7 357 11 20 14 22 19 22 32 25 24 26 18 13 10 22 50 58 65 67 70 81 96 135 140 142 143 128 122 134 118 70 50 68 20 58 108 317 315 231 184 132 130 140 147 163 164 156 154 153 143 141 139 136 131 121 125
17 14 10 5 358 353 353 354 360 11 27 30 33 46 63 65 46 32 31 35 37 26 23 47 55 60 63 82 93 17 15 9 9 14 15 12 16 17 23 35 30 23 26 27 24 23 28 44 57 64 58 57 72 158 148 142 217 126 121 174 166 98 68 44 56 358 3 161 228 287 309 123 125 145 153 157 170 170 165 162 159 153 149 141 136 130 125 125
17 14 14 11 5 2 2 1 1 12 35 37 43 50 44 31 355 12 15 24 38 29 25 44 39 46 70 92 35 4 5 11 10 6 6 3 360 3 4 12 20 16 20 25 22 26 23 23 44 56 55 73 78 196 142 143 192 124 115 209 5 43 124 103 55 25 24 232 243 273 306 140 151 163 159 165 181 184 178 163 164 165 159 158 152 148 139 127
17 14 15 13 10 8 7 4 359 7 29 31 45 50 45 34 350 315 341 3 35 26 28 37 20 37 97 40 345 352 1 3 359 358 2 356 349 353 351 354 2 360 6 11 7 3 353 359 21 31 39 62 346 309 158 117 81 69 41 55 16 11 129 139 74 35 8 302 252 209 260 320 154 160 163 174 186 196 198 168 170 177 166 168 167 157 144 139
18 14 13 14 13 12 11 9 2 359 347 353 30 39 44 41 35 12 313 309 12 16 35 28 16 71 81 6 348 351 345 342 348 359 360 351 346 355 352 357 352 338 333 324 348 345 324 349 4 54 34 29 11 355 69 56 17 359 12 47 22 354 30 162 96 27 347 313 269 220 238 262 153 158 170 178 181 193 205 183 174 174 174 179 169 160 156 158
19 15 13 14 14 14 16 15 13 8 341 290 316 338 9 31 43 48 40 57 52 356 27 16 13 92 60 13 2 331 323 328 347 0 359 353 349 351 344 334 319 319 313 294 348 350 335 14 32 49 29 21 23 18 57 51 354 350 354 351 351 342 313 23 85 33 2 337 301 273 261 252 158 161 178 180 183 191 199 190 176 172 181 185 170 174 177 170
18 17 15 16 17 16 17 18 21 23 13 328 293 309 316 322 41 47 42 52 60 24 27 355 1 106 6 8 340 327 323 322 349 3 2 1 349 342 337 313 296 314 335 352 5 3 2 27 34 39 20 11 16 18 38 18 335 338 323 318 346 331 321 57 73 57 24 338 289 271 268 266 169 169 183 184 187 195 206 196 176 179 184 180 179 188 181 176
17 17 16 17 19 19 18 19 19 19 18 5 326 312 336 314 113 37 31 45 60 66 101 340 357 56 7 350 330 341 349 331 358 6 3 3 346 332 340 324 292 355 20 359 355 11 35 52 42 25 8 355 354 359 360 343 330 326 308 305 326 329 354 36 82 67 46 353 284 276 279 275 235 198 188 180 185 194 211 208 184 184 185 178 187 188 180 185
16 15 16 15 18 21 21 20 15 14 12 10 24 50 58 360 59 124 25 53 64 67 92 55 29 72 7 312 331 347 3 331 354 2 3 8 3 339 344 350 14 27 11 342 329 22 47 57 40 10 359 337 333 340 340 340 334 320 310 317 322 5 337 316 74 61 44 20 280 289 290 274 265 242 190 169 184 196 201 209 198 188 186 180 189 189 178 168
16 14 13 13 15 20 24 25 21 22 23 37 63 73 72 39 81 118 120 95 68 32 89 66 60 69 357 313 345 343 334 350 350 359 2 5 22 33 339 359 50 34 3 10 159 53 56 50 18 360 351 326 317 326 337 332 312 300 313 332 336 12 344 324 66 54 337 323 273 293 302 281 274 267 225 177 184 197 193 202 204 186 187 187 189 187 175 164
15 14 12 10 11 17 27 32 33 40 51 63 71 72 74 62 81 87 10 98 101 346 24 39 39 30 2 2 358 349 30 24 345 346 355 357 14 23 344 15 45 39 23 37 64 77 74 23 0 345 331 331 326 350 359 335 298 303 352 355 347 12 4 329 345 324 306 287 267 285 303 286 275 262 251 198 175 175 180 194 203 185 187 194 190 179 172 180
15 14 12 10 9 11 27 34 39 48 55 67 71 68 72 59 42 20 4 78 93 18 64 54 58 34 12 3 358 353 43 34 350 333 350 359 350 325 0 32 24 37 40 51 75 87 94 355 336 314 306 332 324 3 25 353 336 32 34 22 351 350 344 304 309 316 306 286 259 279 292 279 274 235 237 193 154 156 162 175 199 195 186 188 187 177 174 184
15 15 13 12 10 8 28 36 37 47 55 59 59 54 54 46 29 25 32 68 42 34 115 134 123 28 360 345 357 352 317 31 20 336 345 3 352 316 359 349 10 38 23 39 75 84 67 40 298 309 328 339 329 23 37 358 327 11 50 29 332 322 315 300 310 315 313 322 324 349 327 298 351 312 232 148 132 144 144 160 194 198 189 189 192 183 171 176
17 15 14 16 14 15 44 41 27 37 60 49 32 27 34 32 28 30 64 118 28 331 340 359 146 4 357 345 345 337 119 7 353 349 351 2 354 278 356 343 48 54 16 25 65 84 32 12 345 342 322 315 1 73 31 5 330 308 188 295 311 309 298 297 316 319 312 318 291 121 79 285 344 1 356 86 122 140 145 173 200 196 193 193 196 196 174 170
19 17 17 19 18 27 59 49 20 31 57 24 355 2 16 10 13 15 67 108 10 295 340 3 332 354 0 342 340 86 124 318 321 9 5 0 351 257 7 9 27 46 30 30 39 18 7 10 6 358 333 330 34 51 13 13 342 291 211 298 310 303 295 301 316 296 267 295 284 143 104 287 309 347 353 38 90 115 130 189 212 210 210 198 190 197 181 174
22 22 23 23 25 38 59 62 43 49 49 330 342 4 5 2 5 4 61 98 338 295 324 347 320 352 351 333 355 69 153 301 334 358 342 353 5 324 47 24 5 21 17 16 59 18 5 24 12 351 351 16 21 349 347 1 327 285 325 323 305 285 285 296 296 270 267 301 322 21 27 317 290 320 351 32 61 52 23 11 1 331 261 213 190 187 176 167
21 25 26 26 29 41 52 55 57 60 38 7 360 4 352 359 16 46 55 158 329 353 250 326 333 342 333 322 21 54 37 356 38 323 320 355 22 19 83 20 340 14 15 26 84 113 53 34 358 351 7 10 341 319 329 339 273 295 319 310 281 243 245 263 260 273 285 296 352 356 356 337 305 349 11 31 47 24 4 12 11 2 351 323 201 163 145 131
19 25 25 26 33 35 38 38 36 33 20 13 331 326 343 2 54 63 21 240 348 334 244 353 344 300 331 355 45 22 20 37 13 324 329 22 15 15 102 163 319 32 30 42 67 92 127 307 329 50 36 307 296 296 291 250 263 311 320 301 276 221 206 241 235 254 311 310 18 1 3 5 352 21 30 31 35 23 10 11 6 1 356 341 333 115 108 102
15 21 21 26 34 35 35 16 10 8 357 349 320 325 13 64 62 71 52 166 24 316 302 11 353 311 357 38 38 355 6 17 359 4 10 11 12 15 37 32 347 22 69 56 60 85 122 87 345 64 326 283 280 282 252 224 271 324 306 297 312 334 136 282 236 188 50 292 268 4 359 329 221 27 41 49 39 35 31 16 3 358 352 345 4 61 71 63
8 12 18 26 28 30 35 9 357 357 341 337 317 285 95 61 27 87 187 7 354 347 23 12 348 347 355 47 36 350 350 353 0 20 4 6 33 31 42 35 346 6 48 12 6 96 88 15 332 236 253 337 317 304 290 240 321 330 312 332 348 4 21 349 302 288 42 216 196 97 22 308 184 69 52 63 42 36 41 34 21 10 6 8 22 39 40 34
2 0 11 21 21 22 22 9 1 355 340 343 311 254 66 49 17 220 285 351 303 312 59 247 309 325 321 19 16 346 337 294 344 4 356 32 59 57 60 39 6 10 325 338 348 342 339 317 329 6 310 339 2 9 3 342 346 341 341 3 3 12 14 337 323 331 341 268 200 121 65 281 196 52 32 62 59 51 54 52 46 32 21 15 19 28 20 7
360 359 2 10 14 15 10 3 360 353 349 349 281 32 48 58 137 66 2 7 323 284 273 267 300 318 9 50 337 319 31 220 334 8 7 39 51 34 37 20 10 9 284 332 4 340 344 307 317 357 303 324 17 44 344 301 315 314 315 1 22 44 44 285 321 327 284 303 318 47 86 275 221 267 293 114 97 76 72 72 64 54 36 9 7 21 1 330
357 359 359 4 7 6 1 357 352 351 355 356 25 42 56 121 187 62 42 260 330 312 298 27 297 296 40 64 261 261 62 359 21 42 27 35 46 18 8 356 359 3 331 1 23 331 328 278 258 301 287 335 24 337 284 327 295 275 294 16 25 62 116 251 274 279 267 316 310 273 118 53 110 193 213 129 90 68 61 57 55 53 35 7 5 358 329 317
359 358 357 2 1 357 355 351 347 354 356 26 55 55 74 125 147 75 50 253 317 332 309 322 323 333 44 59 335 323 86 323 339 43 50 45 60 46 41 350 348 8 24 28 20 357 330 281 216 190 321 43 45 315 326 19 297 282 351 36 262 165 130 247 290 304 31 9 281 276 317 24 83 203 234 71 65 56 49 40 39 34 6 348 340 326 319 325
2 357 340 352 357 354 350 346 346 358 354 42 68 82 106 77 106 64 25 310 191 236 295 321 359 31 33 39 8 341 351 11 331 2 75 56 59 24 19 92 353 5 28 37 57 75 342 291 244 174 7 88 88 335 329 349 105 82 357 295 229 85 106 134 293 322 339 306 287 323 336 323 327 266 323 50 53 32 29 25 14 1 347 333 326 329 336 335
359 350 302 347 356 353 350 348 345 347 13 55 79 110 112 73 285 353 11 331 195 183 323 44 78 103 40 20 19 330 338 2 343 5 58 27 22 298 313 62 50 13 2 353 61 83 352 304 285 318 15 174 143 48 345 332 67 96 259 255 104 76 44 335 312 299 315 308 289 316 349 335 305 279 6 29 26 11 10 5 356 345 330 322 329 335 335 326
358 349 268 352 356 354 353 352 343 353 48 71 101 143 78 82 77 50 6 323 214 145 56 114 147 91 61 26 355 327 1 12 344 360 58 12 355 289 272 141 31 11 353 349 33 322 331 110 283 282 147 134 116 56 23 342 3 32 8 27 79 118 185 306 331 222 282 303 305 318 339 340 262 226 44 43 23 4 355 349 344 329 316 323 336 330 321 313
7 3 226 351 355 352 356 9 16 35 54 71 85 59 11 78 100 96 36 338 240 58 30 66 153 99 78 50 334 347 21 16 352 360 12 355 324 334 40 89 342 343 341 351 26 332 339 130 261 287 41 76 48 11 7 346 358 14 37 51 35 8 120 222 216 126 199 282 313 311 301 271 221 345 62 68 33 349 338 337 325 314 325 337 335 324 313 305
13 37 281 350 354 347 0 35 38 37 69 84 62 58 16 27 107 109 96 19 330 286 339 15 59 99 107 111 66 356 7 27 11 12 12 358 312 340 22 21 337 339 334 333 54 6 358 211 283 302 324 10 92 358 350 351 115 58 54 87 81 1 47 30 312 47 76 289 262 281 288 279 254 104 92 93 54 319 313 320 316 323 337 334 323 317 309 307
29 41 311 346 354 354 38 56 43 25 66 86 43 42 352 332 101 109 132 102 348 318 317 17 57 80 76 102 86 14 17 34 13 16 20 335 346 35 344 308 326 330 324 349 108 63 23 279 285 289 309 48 76 4 6 14 72 71 31 74 89 47 75 78 271 297 7 318 291 257 262 274 264 125 119 156 203 263 293 320 333 332 331 322 314 311 309 311
22 317 310 349 355 8 78 68 65 45 51 82 281 9 349 347 43 78 343 6 347 333 23 35 12 52 52 66 103 50 16 50 38 19 21 332 10 49 353 320 341 330 324 35 95 47 44 139 285 280 287 67 51 311 357 351 16 48 6 10 80 95 113 153 225 340 17 279 277 266 252 265 274 198 174 205 228 273 313 337 337 326 319 315 313 313 315 316
351 274 289 355 2 33 100 69 103 94 75 140 77 44 21 11 25 36 25 34 5 333 58 95 342 56 67 69 94 91 320 64 86 57 32 314 352 32 40 12 2 357 15 22 334 330 324 107 4 313 319 11 3 337 329 318 330 351 318 150 121 112 106 102 32 83 87 233 209 214 249 251 254 255 268 287 313 331 335 333 328 322 319 317 316 318 316 310
327 265 251 356 21 56 104 123 115 116 122 125 92 65 92 68 45 8 12 33 10 342 43 88 358 53 83 80 71 67 7 110 123 141 119 317 200 97 44 18 8 23 50 26 348 326 283 337 32 358 332 326 328 322 292 305 312 308 319 134 160 153 136 127 107 138 234 236 205 209 254 269 279 290 298 312 330 332 325 322 322 320 317 315 313 310 302 299
12 40 296 344 28 54 92 43 80 111 141 145 118 121 127 107 124 144 2 31 14 341 53 94 327 48 87 113 83 68 62 84 83 150 222 217 143 122 64 36 42 56 75 33 1 348 311 311 228 217 241 263 289 294 294 324 301 279 278 269 255 216 172 156 162 205 217 279 260 243 252 272 286 299 307 316 325 321 315 314 313 309 308 305 301 298 300 308
100 66 359 355 18 44 65 44 52 97 145 168 149 141 132 120 130 134 358 34 123 328 46 89 199 188 151 162 143 135 181 64 56 85 215 201 119 59 218 161 95 111 127 29 347 354 21 305 236 213 235 255 282 293 298 301 280 266 271 269 262 251 215 194 211 225 229 352 274 245 251 280 288 303 314 312 314 311 307 308 308 307 305 301 301 307 314 320
70 143 141 118 93 59 48 14 38 72 76 76 96 127 132 137 153 165 53 42 335 249 183 128 225 220 206 175 98 152 180 236 327 224 204 226 263 199 197 163 124 131 121 20 337 41 85 281 268 212 259 268 279 281 277 271 263 258 260 259 259 255 234 227 238 238 228 242 250 264 301 290 287 299 306 301 302 302 301 306 309 307 304 305 311 314 315 321
82 96 86 62 103 109 152 287 81 85 77 74 89 156 166 159 157 134 102 109 283 221 176 174 217 206 200 164 40 136 173 195 302 257 192 167 229 223 244 312 105 115 103 93 332 54 116 225 346 344 298 288 280 271 264 262 265 264 257 255 260 259 244 242 250 243 232 241 254 271 282 279 280 287 287 287 294 297 299 304 304 304 307 314 317 316 317 319
80 85 93 101 88 91 203 235 127 98 84 65 106 163 186 179 166 128 116 149 179 168 174 212 168 153 147 152 160 11 39 54 14 306 151 139 211 243 251 248 117 117 104 124 149 354 117 129 54 19 306 294 289 283 267 262 269 273 268 261 257 265 266 260 257 250 240 249 256 264 270 273 272 268 275 291 303 301 302 304 304 308 314 319 320 317 315 312
28 29 80 106 98 85 206 106 17 42 104 195 190 160 210 209 170 140 114 78 51 133 177 185 126 114 95 148 199 348 22 44 58 37 40 85 175 214 224 79 110 131 170 211 138 129 148 194 59 49 310 284 283 287 275 276 279 277 276 267 242 236 249 247 242 223 216 242 259 265 269 273 275 281 297 307 305 302 304 305 306 312 317 317 316 312 311 311
18 358 11 78 97 236 240 145 54 38 120 279 102 133 148 145 138 131 104 43 50 63 27 7 114 132 126 158 182 158 27 29 56 55 38 49 48 32 46 18 64 142 162 163 162 144 111 98 4 9 298 272 273 270 275 296 312 288 264 235 197 198 217 234 246 230 214 224 247 254 258 272 297 310 308 306 303 303 304 307 312 315 315 312 309 308 312 318